Overview Statistics Trail Chart Weather Telemetry Raw packets
 

This is the latest recevied weather packets stored in our database for station/object WA1TYB-13. If no packets are shown the sender has not sent any weather packets the latest 10 day(s).

<< 90 91 92 93 94 95 96 >>
Time Temp. Humidity Pressure Rain* Wind** Luminosity Snow
1787942421 22.78° C 44% 1017.6 hPa 0 mm - 429 W/m² -
1787942121 22.78° C 43% 1017.7 hPa 0 mm - 359 W/m² -
1787941817 22.78° C 42% 1017.7 hPa 0 mm - 305 W/m² -
1787941515 22.78° C 43% 1018.1 hPa 0 mm - 289 W/m² -
1787941210 22.78° C 41% 1017.8 hPa 0 mm - 275 W/m² -
1787940914 22.78° C 41% 1018.1 hPa 0 mm - 218 W/m² -
1787940602 23.33° C 41% 1018 hPa 0 mm - 259 W/m² -
1787940297 23.33° C 40% 1017.9 hPa 0 mm - 378 W/m² -
1787939995 22.78° C 40% 1018 hPa 0 mm - 513 W/m² -
1787939690 21.67° C 44% 1018.2 hPa 0 mm - 302 W/m² -
1787939384 21.11° C 47% 1018.2 hPa 0 mm - 504 W/m² -
1787939080 20.56° C 48% 1018.1 hPa 0 mm - 498 W/m² -
1787938779 20.56° C 48% 1018.6 hPa 0 mm - 507 W/m² -
1787938475 20.56° C 47% 1018.5 hPa 0 mm - 418 W/m² -
1787938170 20° C 47% 1018.4 hPa 0 mm - 248 W/m² -
1787937865 20° C 49% 1018.5 hPa 0 mm - 358 W/m² -
1787937561 19.44° C 51% 1018.4 hPa 0 mm - 434 W/m² -
1787937257 18.89° C 53% 1018.2 hPa 0 mm - 322 W/m² -
1787936952 18.33° C 53% 1018.4 hPa 0 mm - 263 W/m² -
1787936651 18.33° C 56% 1018.6 hPa 0 mm - 273 W/m² -
1787936351 17.78° C 58% 1018.7 hPa 0 mm - 255 W/m² -
1787936046 18.33° C 54% 1018.5 hPa 0 mm - 254 W/m² -
1787935741 17.78° C 52% 1018.2 hPa 0 mm - 224 W/m² -
1787935437 17.78° C 52% 1018.1 hPa 0 mm - 212 W/m² -
1787935134 18.33° C 51% 1018.2 hPa 0 mm - 193 W/m² -

* Rain latest hour (hover to see other rain measurements)
** Current wind speed in m/s (hover to see current wind gust speed)